Home > Weather > Pago Pago > Past weeks

Flag for American Samoa Past Weather in Pago Pago, American Samoa — Yesterday and Last 2 Weeks

Now
81 °F

Cloudy.


Feels Like: 86 °F
Forecast: 79 / 82 °F
Wind: 17 mph from Southeast

Location: Pago Pago / Int. Airp.

Current Time: May 27, 2016 at 7:09:51 PM

Latest Report: May 27, 2016 at 5:51 PM


Visibility: 12 mi

Pressure: 29.93 "Hg

Humidity: 79%

Dew Point: 74 °F

Location of Pago PagoLocation

Past Weather in Pago Pago — Graph

°F

Pago Pago Temperature Yesterday

Maximum temperature yesterday: 87 °F (at 11:56 AM)
Minimum temperature yesterday: 79 °F (at 5:52 AM)
Average temperature yesterday: 83 °F

High & Low Weather Summary for the Past Weeks

 TemperatureHumidityPressure
High89 °F (May 22, 12:50 PM)100% (May 21, 10:00 AM)30.01 "Hg (May 21, 10:00 AM)
Low77 °F (May 21, 10:00 AM)71% (May 13, 11:54 AM)29.77 "Hg (May 17, 2:51 PM)
Average82 °F86%29.87 "Hg
* Reported May 12 5:52 PM — May 27 5:51 PM, Pago Pago, Weather by CustomWeather, © 2016

Note: Actual official high and low records may vary slightly from our data, if they occured in-between our weather recording intervals... More about our weather records

Advertising

Pago Pago Weather History for the Previous 24 Hours

Scroll right to see more
 ConditionsComfort  
Time TempWeatherWind HumidityBarometerVisibility
5:51 PM
Fri, May 27
81 °FCloudy.17 mph79%29.93 "Hg12 mi
4:51 PM81 °FPartly sunny.17 mph79%29.91 "Hg12 mi
3:50 PM82 °FBroken clouds.18 mph79%29.91 "Hg12 mi
2:51 PM83 °FBroken clouds.15 mph78%29.91 "Hg12 mi
1:52 PM83 °FBroken clouds.15 mph76%29.93 "Hg12 mi
12:54 PM85 °FBroken clouds.16 mph76%29.95 "Hg12 mi
11:50 AM84 °FBroken clouds.17 mph76%29.98 "Hg12 mi
10:52 AM85 °FBroken clouds.17 mph76%30.00 "Hg12 mi
9:52 AM82 °FBroken clouds.18 mph81%30.01 "Hg12 mi
8:52 AM81 °FBroken clouds.18 mph86%30.00 "Hg12 mi
7:53 AM80 °FSprinkles. Cloudy.18 mph92%29.98 "Hg5 mi
6:52 AM79 °FBroken clouds.14 mph94%29.96 "Hg8 mi
5:52 AM79 °FSprinkles. Mostly cloudy.18 mph92%29.96 "Hg8 mi
4:51 AM79 °FMostly cloudy.12 mph92%29.95 "Hg10 mi
3:53 AM81 °FMostly cloudy.13 mph88%29.95 "Hg10 mi
2:51 AM82 °FPartly cloudy.14 mph89%29.94 "Hg10 mi
1:50 AM82 °FMostly cloudy.14 mph89%29.96 "Hg10 mi
12:53 AM82 °FPartly cloudy.14 mph88%29.96 "Hg10 mi
11:51 PM
Thu, May 26
83 °FPartly cloudy.12 mph87%29.96 "Hg10 mi
10:53 PM83 °FPartly cloudy.15 mph87%29.96 "Hg10 mi
9:51 PM83 °FPartly cloudy.14 mph87%29.98 "Hg10 mi
8:51 PM83 °FPartly cloudy.17 mph86%29.98 "Hg10 mi
7:51 PM83 °FPartly cloudy.15 mph87%29.96 "Hg10 mi
Weather by CustomWeather, © 2016

See weather overviewHow to use our weather pages